1st Responders/1st Detectors/Storm Spotters Weather Summary for Scott County, KY

Forecast Maps


Reg. NEXRAD Animation


National Fire Danger: Day 1 & 2 Map

Current NWS Watch/Warnings

SPC Convective Day 1 Outlook


Day 2 Outlook

(Click images to enlarge|Page will refresh every 5 minutes)
UK Ag. Weather Center Desktop Severe Weather Service[HERE]
Scott County, KY Hazardous Weather Outlook Webcast
(9 AM to 9 PM Mon-Fri)
[Fast]
[Dial-up]


UKAWC 1st Detectors/1st Responders Precision Weather Forecast For SCOTT County, Kentucky
(based on the NWS County Digital Forecast)

ISSUED AT 20:00 UTC ON SATURDAY JAN 20 2018
DAY SATURDAY
EDT 3HR 5P 6P 7P
MAX/MIN -- -- 47°
TEMP 45° 45° 43°
SKY COVER 94% 99% 99%
Clouds
DEW PT 36° 36° 36°
RH 70% 73% 76%
POP 12HR -- -- --
RAIN/SNOW (liq.equ) -- -- --
SNOWFALL -- -- --
WIND SPEED(MPH) 10 8 7
WIND Gust(MPH) 15 13 10
WIND DIR SW SW SW
DEW -- -- --
HeatIndex 45 40 38
Rain -- -- --
Rain Showers Slight Chance Slight Chance --
Drizzle -- -- Slight Chance
Fog -- -- --
WIND CHILL 40° 41° 39°
SPRAY COND
DRY COND
LIVESTOCK COLDSTRESS



DAY SUNDAY MONDAY TUESDAY WEDNESDAY THURSDAY FRIDAY
EDT 6HR 8P 9P 10P 11P MIDN 1A 2A 3A 4A 5A 6A 7A 8A 9A 10A 11A NOON 1P 2P 3P 4P 5P 6P 7P 8P 9P 10P 11P MIDN 1A 2A 3A 4A 5A 8A 11A 2P 5P 8P 2A 8A 2P 8P 2A 8A 2P 8P 2A 8A 2P 8P 2A 8A 2P 8P
MAX/MIN -- -- -- -- -- -- -- -- -- -- -- -- 41° -- -- -- -- -- -- -- -- -- -- 52° -- -- -- -- -- -- -- -- -- -- 45° -- -- 58° -- -- 36° 41° -- -- 25° 41° -- -- 23° 47° -- -- 31° 54° --
TEMP 41° 41° 41° 41° 43° 43° 43° 43° 43° 43° 43° 43° 43° 43° 43° 43° 45° 47° 49° 52° 52° 52° 52° 49° 47° 47° 47° 47° 45° 45° 45° 45° 45° 47° 45° 50° 56° 58° 56° 41° 36° 40° 36° 27° 25° 38° 34° 27° 25° 43° 38° 34° 32° 49° 45°
SKY COVER 98% 95% 95% 95% 94% 95% 91% 90% 89% 88% 88% 88% 88% 86% 85% 85% 83% 80% 78% 78% 78% 78% 77% 76% 75% 74% 73% 73% 73% 75% 76% 76% 76% 76% 69% 77% 95% 91% 64% 58% 77% 71% 59% 40% 19% 20% 25% 26% 28% 25% 20% 28% 29% 32% 47%
Clouds
DEW PT 34° 34° 36° 36° 36° 36° 36° 36° 38° 38° 38° 38° 38° 40° 40° 40° 41° 43° 43° 45° 45° 45° 45° 43° 43° 43° 43° 43° 43° 43° 43° 43° 43° 43° 43° 43° 47° 47° 47° 34° 31° 27° 27° 23° 22° 23° 23° 22° 20° 27° 27° 25° 27° 29° 31°
RH 76% 75% 78% 78% 76% 76% 76% 76% 79% 79% 79% 82% 85% 88% 89% 89% 85% 82% 80% 76% 74% 74% 77% 79% 85% 88% 85% 86% 89% 92% 92% 89% 88% 85% 92% 77% 72% 67% 71% 75% 85% 62% 69% 84% 91% 54% 66% 84% 84% 50% 66% 72% 78% 46% 60%
POP 12HR 15% -- -- -- -- -- -- -- -- -- -- -- 30% -- -- -- -- -- -- -- -- -- -- -- 28% -- -- -- -- -- -- -- -- -- 7% -- -- -- 84% -- 68% -- 18% -- 5% -- 4% -- 4% -- 2% -- 3% -- 5%
RAIN/SNOW (liq.equ) 0.00in -- -- -- -- -- 0.00in -- -- -- -- -- 0.01in -- -- -- -- -- 0.00in -- -- -- -- -- 0.00in -- -- -- -- -- 0.00in -- -- -- 0.00in -- 0.02in -- 0.19in -- -- -- -- -- -- -- -- -- -- -- -- -- -- -- --
SNOWFALL 0in -- -- -- -- -- 0in -- -- -- -- -- 0in -- -- -- -- -- 0in -- -- -- -- -- 0in -- -- -- -- -- 0in -- -- -- 0in -- 0in -- 0in -- -- -- -- -- -- -- -- -- -- -- -- -- -- -- --
WIND SPEED(MPH) 7 7 7 7 7 7 7 7 7 7 7 7 7 7 7 8 9 9 9 9 8 8 8 7 7 7 7 7 7 7 7 7 8 8 9 14 15 13 13 15 16 15 10 7 7 8 7 5 5 7 7 7 7 8 7
WIND DIR S S S S S S S S S S S S S S S S S S S S S S S S S S S S S S S S S S S S S S S SW SW W W W W W W W S SW S S S S S
HeatIndex 36 36 36 36 38 39 40 39 39 40 40 40 38 38 38 38 45 47 49 52 52 52 52 49 47 47 47 47 45 40 40 45 45 47 45 50 56 58 56 34 25 31 27 20 17 32 27 21 19 40 32 27 26 49 40
Rain -- -- -- -- -- -- Chance Chance Chance Chance Chance Chance Chance Chance Chance Chance Chance Chance -- -- -- -- -- -- -- -- -- -- -- -- -- -- -- -- -- -- -- -- -- -- -- -- -- -- -- -- -- -- -- -- -- -- -- -- --
Rain Showers -- -- -- -- -- -- -- -- -- -- -- -- -- -- -- -- -- -- -- -- -- -- -- -- -- -- -- -- -- -- -- -- -- -- Chance Chance Definite Definite Likely Slight Chance Slight Chance -- -- -- -- -- -- -- -- -- -- -- -- -- --
Drizzle Slight Chance Slight Chance Slight Chance Slight Chance Slight Chance Slight Chance -- -- -- -- -- -- -- -- -- -- -- -- -- -- -- -- -- -- -- -- -- -- -- -- -- -- -- -- -- -- -- -- -- -- -- -- -- -- -- -- -- -- -- -- -- -- -- -- --
Fog -- -- -- -- -- -- Patchy Patchy Patchy Patchy Patchy Patchy Patchy Patchy Patchy Patchy Patchy Patchy -- -- -- -- -- -- -- -- -- -- -- -- -- -- -- -- -- -- -- -- -- -- -- -- -- -- -- -- -- -- -- -- -- -- -- -- --
WIND CHILL 36° 36° 36° 36° 39° 39° 39° 39° 39° 39° 39° 39° 39° 39° 39° 38° 40° -- -- -- -- -- -- -- -- -- -- -- 41° 41° 41° 41° 41° -- 40° -- -- -- -- 33° 27° 32° 29° 20° 17° 32° 28° 22° 19° 39° 33° 28° 26° -- 41°
SPRAY COND
DRY COND
LIVESTOCK COLDSTRESS

Click on individual weather variable above in left-hand column (ie., TEMP, RH, QPF 12HR) to view state forecast maps






NWS 48 Hr. Forecast Maps,

Regional Hourly Observations For SCOTT County, Kentucky
Issued at 300 PM EST SAT JAN 20 2018
NORTHEAST KENTUCKY
  
CITY           SKY/WX    TMP DP  RH WIND       PRES   REMARKS
LEXINGTON      CLOUDY    48  34  58 SW12      30.11F                  
COVINGTON      PTSUNNY   47  32  56 S12       30.06F                  
FRANKFORT      CLOUDY    49  32  52 SW10G20   30.10R                  


Current NOWCAST not available:
Nowcasts are not issued routinely during fair weather. Only when
precipitation or other significant weather is occuring in this county will these
forecasts be issued. Currently, there is no short term forecast in effect.


Fire Weather Forecast For SCOTT County, KY
Provided by the National Weather Service:

Issued at: Sat Jan 20 15:05:01 EST 2018


                      Today        Tonight      Sun          

CLOUD COVER           MCldy        MCldy        MCldy        
PRECIP TYPE           sprinkles    rain         rain         
CHANCE PRECIP (%)     0            30           0            
TEMP (24H TREND)      47 (+8)      39 (+8)      53           
RH % (24H TREND)      58 (+16)     99 (+30)     72           
20FTWND-VAL/AM(MPH)   SW 10                     S  6         
20FTWND-RDG/PM(MPH)   SW  8        S  5         S  6         
PRECIP AMOUNT         0.00         0.01         0.00         
MIXING HGT(FT-AGL/MSL)1555                      897          
TRANSPORT WND (MPH)   SW 15                     S 13         
VENT RATE (KT-FT)     26481                     11809        
DISPERSION            Poor                      Poor         
DSI                   STBL         STBL         STBL         
LAL                   1            1            1            
HAINES INDEX          3            2            2            
ADI EARLY             19 GEN POOR  7 POOR       13 GEN POOR  
ADI LATE              20 GEN POOR  8 POOR       16 GEN POOR  
MAX LVORI EARLY       3            5            7            
MAX LVORI LATE        4            6            4            

REMARKS...ADI IS ATMOSPHERIC DISPERSION INDEX BY LAVDAS.        
LVORI IS LOW VISIBILITY OCCURRENCE RISK INDEX.

.MONDAY...Mostly cloudy with rain showers. Lows in the mid 40s.
Highs in the upper 50s. South winds around 10 mph. 
.TUESDAY...Mostly cloudy. Rain showers likely. Colder. Lows in
the mid 30s. Highs in the lower 40s. South winds around 15 mph. 
.WEDNESDAY...Partly cloudy. Lows in the mid 20s. Highs in the
lower 40s. West winds 5 to 10 mph. 
.THURSDAY...Mostly clear. Lows in the mid 20s. Highs in the upper
40s. South winds up to 5 mph. 
.FRIDAY...Partly cloudy. Lows in the lower 30s. Highs in the
lower 50s. South winds 5 to 10 mph. 

SPC's Fire Weather Web Tool (Excellent!), SPC's Fire Weather Outlooks, NWS Fire Weather WEB, Fire Danger Class Map,
Keetch-Byram Drought Index, ROMAN Web, Haines Index ,
WFAS's 10-hr Dead Fuel Moist., WFAS's 100-hr Dead Fuel Moist., Probablity of Ignition, Visual blackness Map, Palmer Drought Index, HPC's Rainfall Forecast Maps


Hazardous Weather Outlook For SCOTT County, Kentucky
410 AM EST Sat Jan 20 2018 /310 AM CST Sat Jan 20 2018/

 DAY ONE  Today and Tonight.

No hazardous weather is expected at this time.

 DAYS TWO THROUGH SEVEN  Sunday through Friday.

Wind gusts around 30-35 mph are possible Monday into Tuesday morning
as a cold front pushes through the region. 

 SPOTTER INFORMATION STATEMENT  

Spotter activation will not be needed.

Latest SCOTT County, Kentucky Watches, Warnings and Advisories.
Additional Drought Info.: UKAWC Drought Page, Kentucky Drought Watch


7-Day Forecast For SCOTT County, KY

TONIGHT
Cloudy. Chance of drizzle after midnight. Near steady temperature in the mid 40s. Southwest winds 5 to 10 mph. Chance of precipitation 30 percent.

SUNDAY
Mostly cloudy with a 30 percent chance of rain. Highs in the lower 50s. South winds 10 to 15 mph.

SUNDAY NIGHT
Mostly cloudy. Near steady temperature in the upper 40s. South winds 5 to 10 mph.

MONDAY
Showers. Highs in the upper 50s. South winds 10 to 15 mph with gusts to around 30 mph. Chance of showers 90 percent.

MONDAY NIGHT
Mostly cloudy with a 50 percent chance of rain showers. Lows in the upper 30s. Southwest winds 10 to 15 mph with gusts to around 30 mph.

TUESDAY
Mostly cloudy with a 20 percent chance of rain showers. Highs in the lower 40s.

TUESDAY NIGHT
Partly cloudy. Lows in the mid 20s.

WEDNESDAY
Mostly sunny. Highs in the lower 40s.

WEDNESDAY NIGHT
Partly cloudy. Lows in the mid 20s.

THURSDAY
Mostly sunny. Highs in the mid 40s.

THURSDAY NIGHT
Mostly clear. Lows in the upper 20s.

FRIDAY
Mostly sunny. Highs in the mid 50s.

FRIDAY NIGHT
Partly cloudy. Lows in the upper 30s.

SATURDAY
Mostly cloudy with a 50 percent chance of rain showers. Highs in the mid 50s.

Ag Weather Center, Department of Biosystems & Agricultural Engineering, University of Kentucky